This is the latest recevied weather packets stored in our database for station/object PE1RXF-13. If no packets are shown the sender has not sent any weather packets the latest 10 day(s).
| Time | Temp. | Humidity | Pressure | Rain* | Wind** | Luminosity | Snow |
|---|---|---|---|---|---|---|---|
| 1788593921 | 16.11° C | 99% | 1014.9 hPa | 0 mm | - | 30 W/m² | - |
| 1788592820 | 16.67° C | 99% | 1014.6 hPa | 0 mm | - | 28 W/m² | - |
| 1788591714 | 16.67° C | 99% | 1014.4 hPa | 0 mm | - | 49 W/m² | - |
| 1788590611 | 15.56° C | 99% | 1014.2 hPa | 0 mm | - | 18 W/m² | - |
| 1788589509 | 15.56° C | 99% | 1014.1 hPa | 0 mm | - | 47 W/m² | - |
| 1788588405 | 14.44° C | 99% | 1014 hPa | 0 mm | - | 19 W/m² | - |
| 1788587302 | 13.89° C | 99% | 1013.9 hPa | 0 mm | - | 6 W/m² | - |
| 1788586200 | 13.33° C | 99% | 1013.8 hPa | 0 mm | - | 5 W/m² | - |
| 1788585097 | 13.33° C | 99% | 1013.6 hPa | 0 mm | - | 3 W/m² | - |
| 1788583993 | 13.33° C | 99% | 1013.6 hPa | 0 mm | - | 0 W/m² | - |
| 1788582890 | 13.33° C | 99% | 1013.5 hPa | 0 mm | - | 0 W/m² | - |
| 1788581788 | 12.78° C | 99% | 1013.3 hPa | 0 mm | - | 0 W/m² | - |
| 1788580684 | 12.22° C | 99% | 1013.3 hPa | 0 mm | - | 0 W/m² | - |
| 1788579581 | 12.22° C | 99% | 1013.3 hPa | 0 mm | - | 0 W/m² | - |
| 1788578478 | 12.22° C | 99% | 1013.3 hPa | 0 mm | - | 0 W/m² | - |
| 1788577376 | 12.22° C | 99% | 1013.2 hPa | 0 mm | - | 0 W/m² | - |
| 1788576273 | 12.22° C | 99% | 1013.1 hPa | 0 mm | - | 0 W/m² | - |
| 1788575169 | 12.22° C | 99% | 1013.1 hPa | 0 mm | - | 0 W/m² | - |
| 1788574067 | 12.78° C | 99% | 1013 hPa | 0 mm | - | 0 W/m² | - |
| 1788572963 | 12.78° C | 99% | 1012.9 hPa | 0 mm | - | 0 W/m² | - |
| 1788571860 | 12.78° C | 99% | 1012.7 hPa | 0 mm | - | 0 W/m² | - |
| 1788570757 | 12.78° C | 99% | 1012.6 hPa | 0 mm | - | 0 W/m² | - |
| 1788569655 | 12.78° C | 99% | 1012.6 hPa | 0 mm | - | 0 W/m² | - |
| 1788568551 | 12.78° C | 99% | 1012.6 hPa | 0 mm | - | 0 W/m² | - |
| 1788567448 | 12.78° C | 99% | 1012.5 hPa | 0 mm | - | 0 W/m² | - |
* Rain latest hour (hover to see other rain measurements)
** Current wind speed in m/s (hover to see current wind gust speed)